Temperature
11 11 10 10 10 10 10 9 9 9 9 9 9 9 9 9 9 9 9 9 9 9 9 9 9 9 9 9 9 9 10 10 10 10 9 9 9 9 9 9 9 9 9
10 10 10 10 10 9 9 9 9 9 9 9 9 9 9 9 9 9 9 9 9 9 9 9 9 9 9 9 9 9 9 9 9 9 9 9 9 9 9 9 9 9 9
10 10 10 9 9 9 9 9 9 9 9 9 8 8 8 8 8 9 9 8 8 8 9 9 9 9 9 9 9 9 9 9 9 9 9 9 9 9 9 9 9 9 9
10 10 9 9 9 9 9 9 9 9 8 8 8 8 8 8 8 8 8 8 8 8 9 9 9 9 9 9 9 9 9 9 9 9 9 9 9 9 9 9 9 9 9
10 10 9 9 9 9 9 8 8 8 8 8 8 8 8 8 8 8 8 8 8 8 8 8 9 9 9 9 9 9 9 9 9 9 9 9 9 9 9 9 10 10 9
9 9 9 9 9 9 9 8 8 8 8 8 8 8 8 8 9 8 8 8 8 8 8 8 8 8 9 9 9 9 9 9 9 9 10 9 9 9 9 9 10 10 10
9 9 9 9 9 9 8 8 8 8 8 8 8 8 8 8 9 9 9 8 8 8 8 8 9 9 9 9 9 9 9 9 9 9 9 9 9 9 9 9 9 10 10
9 9 9 9 9 9 8 8 8 8 8 8 8 8 8 8 9 9 9 9 8 8 8 8 9 9 9 9 9 9 9 9 9 9 9 9 9 9 9 9 9 9 9
9 9 9 9 9 9 8 8 8 8 8 8 8 8 8 8 9 9 9 9 9 9 9 9 9 9 9 9 9 9 9 9 9 9 9 9 9 9 9 9 9 10 10
9 9 9 9 9 9 8 8 8 8 8 8 8 8 8 9 9 9 9 9 9 9 9 9 9 9 9 9 9 9 9 9 9 9 9 9 9 9 9 9 9 10 10
9 9 9 9 8 8 8 8 8 8 8 8 8 9 9 9 9 9 9 9 9 9 9 9 9 9 9 9 9 9 9 9 9 9 9 9 9 9 9 9 9 9 10
9 9 9 9 9 9 8 8 8 8 9 9 9 9 9 9 9 9 9 9 9 9 9 9 9 10 10 10 10 10 10 10 10 10 10 10 10 10 10 9 9 9 9
9 9 9 9 8 9 9 9 9 9 9 10 10 10 10 9 9 9 9 9 9 9 9 10 10 10 10 10 10 10 10 10 10 10 10 10 10 10 9 9 9 9 9
9 9 9 9 9 9 9 9 9 9 10 10 10 10 10 10 10 9 9 9 9 10 10 10 10 10 10 10 10 10 10 10 10 10 10 10 10 10 10 10 10 10 10
9 9 9 9 9 9 9 9 9 9 9 9 9 10 10 10 10 9 9 10 10 10 10 10 10 10 11 11 11 11 10 10 10 10 10 10 10 10 10 10 10 10 10
9 9 9 9 9 9 10 9 9 9 9 9 9 9 9 9 10 10 10 10 10 10 10 10 11 11 11 11 11 11 11 11 11 11 11 11 11 11 11 11 11 11 11
9 9 9 10 10 10 10 10 10 10 10 10 10 10 10 10 10 10 10 10 10 10 10 11 11 11 11 11 11 12 12 11 11 11 11 11 11 11 11 11 11 11 11
10 10 10 10 10 10 10 10 10 11 11 11 10 10 10 10 10 10 10 10 10 11 11 11 11 11 11 11 12 12 12 11 11 11 11 11 11 11 11 11 11 11 11
10 10 10 10 10 10 10 11 11 11 11 11 11 11 11 10 10 11 11 11 11 11 11 12 12 12 12 12 12 11 11 11 11 11 11 11 11 11 11 11 12 11 11
10 10 10 10 11 11 11 11 11 11 11 11 11 11 11 11 11 11 11 11 11 11 11 12 12 12 12 12 12 12 12 11 11 11 11 11 11 11 11 12 12 12 12
11 11 11 10 11 11 11 11 11 11 11 11 12 11 11 11 11 11 11 12 11 12 11 11 11 11 12 11 12 12 12 12 12 12 12 12 12 12 12 12 12 12 12
11 12 11 11 11 11 11 11 11 11 11 12 12 12 11 11 11 12 12 12 12 12 11 11 11 12 12 12 12 12 12 12 12 12 12 12 12 12 12 12 12 12 12
12 12 12 12 12 11 11 11 11 12 12 12 12 12 12 12 12 12 12 12 12 12 11 11 11 11 12 11 11 11 11 11 11 11 11 11 11 12 12 12 12 12 12
12 12 12 12 12 12 12 12 12 12 12 12 12 12 12 12 12 12 12 12 12 12 11 11 11 11 11 11 11 11 11 11 11 11 11 11 11 11 11 11 11 11 11
12 12 12 12 12 12 12 12 12 12 12 12 12 12 12 12 12 12 12 12 12 12 12 12 12 11 11 11 11 11 11 11 11 11 11 11 11 11 11 11 11 11 11
13 13 13 13 12 12 12 12 12 12 12 12 12 12 12 12 12 12 12 12 12 12 12 12 12 11 11 11 11 11 11 11 11 11 11 10 10 11 10 10 11 11 11
Wind_Speed
3 2 2 2 2 2 2 1 2 2 2 3 3 3 3 3 4 4 4 4 4 4 4 3 3 3 2 2 2 2 3 3 2 2 2 1 2 3 1 2 2 2 2
2 2 3 3 3 2 2 2 2 2 2 2 3 3 4 4 4 4 5 5 4 4 4 4 3 2 2 2 2 2 2 2 3 2 2 2 2 2 1 2 2 2 1
3 3 4 3 3 2 2 1 2 2 2 3 3 3 4 4 4 3 4 5 4 4 4 4 3 3 2 2 2 1 1 2 2 3 2 2 2 2 2 2 2 2 1
3 3 4 3 2 2 2 2 2 2 2 3 3 4 4 4 4 4 4 4 4 4 4 4 4 3 3 2 1 2 2 2 2 2 2 2 1 2 2 2 2 2 1
3 3 3 3 3 2 2 2 2 2 2 3 3 4 4 3 4 5 4 4 4 4 4 3 3 3 4 3 2 2 2 2 1 1 2 2 1 1 2 2 2 2 2
3 3 3 3 2 2 2 1 2 2 2 3 3 4 4 4 5 6 6 4 4 4 3 3 2 1 2 1 2 4 4 3 2 1 1 1 1 2 2 2 1 1 1
3 3 4 3 3 2 1 1 1 1 2 3 3 4 4 4 4 5 6 5 4 3 3 3 3 3 2 1 1 3 3 3 4 4 2 1 1 1 2 2 1 1 1
3 3 3 3 2 2 1 1 1 1 2 2 3 3 3 3 3 5 7 5 3 3 3 3 3 3 3 4 3 2 2 1 2 3 3 3 2 2 2 2 2 2 3
4 3 3 3 2 1 1 1 1 1 2 2 2 3 3 3 2 5 8 4 2 3 3 3 3 3 4 5 4 3 2 1 2 1 2 3 3 3 3 3 3 3 2
4 3 2 2 2 1 1 1 1 2 2 2 2 3 3 3 3 4 7 4 3 4 3 2 1 2 4 5 4 3 2 1 1 0 2 3 4 4 5 4 3 3 2
4 3 2 2 2 1 1 1 1 1 2 3 3 3 2 3 2 2 4 3 4 4 4 3 2 1 3 5 6 5 3 3 3 2 2 2 2 2 3 3 3 3 3
4 4 3 2 2 1 1 1 1 1 2 2 2 2 1 1 2 1 2 4 6 5 4 4 3 2 5 6 5 3 4 5 3 2 1 1 0 0 0 1 1 3 3
5 4 3 2 2 2 2 2 2 2 2 2 2 2 2 2 1 4 5 5 6 5 5 5 6 7 7 6 6 6 5 4 2 2 2 1 1 1 1 2 3 4 5
5 4 3 3 3 2 3 3 2 2 3 3 3 3 3 3 3 3 2 3 4 5 5 4 7 9 7 5 4 5 4 2 2 3 2 2 2 2 3 3 3 3 4
4 4 3 3 2 2 2 2 3 3 3 4 4 4 5 4 5 6 6 6 6 6 6 6 5 4 3 2 2 2 3 3 3 3 3 3 3 3 4 4 4 5 5
4 4 3 3 3 3 3 3 4 5 3 6 7 8 6 5 6 7 7 8 8 7 6 5 5 5 4 3 3 3 3 3 3 4 4 4 4 4 4 4 5 5 6
4 4 3 3 3 4 4 4 3 5 9 10 10 10 10 9 9 9 9 9 10 6 5 6 5 5 5 4 4 4 3 3 4 4 5 5 5 5 5 5 6 6 6
5 4 4 4 4 4 4 4 4 4 4 4 8 11 11 11 11 11 10 8 7 6 6 6 6 5 5 5 5 5 4 4 4 5 5 5 6 6 6 6 6 7 7
6 4 4 4 4 4 5 5 5 5 5 5 4 4 9 11 12 12 9 6 7 7 6 6 6 6 6 6 6 6 6 6 6 6 6 6 7 7 7 8 8 7 8
6 5 5 5 5 5 5 5 5 5 5 5 5 5 4 5 6 5 5 6 6 7 7 7 6 7 7 7 7 7 7 7 7 8 7 7 8 8 9 9 9 9 8
5 5 8 7 5 5 4 5 5 6 6 6 6 5 6 7 7 7 7 6 6 6 7 7 7 7 7 7 7 8 8 8 8 8 8 8 9 9 9 9 9 9 9
5 5 5 5 4 4 5 5 6 6 6 7 7 6 6 7 7 7 7 7 7 7 7 7 8 7 7 7 8 8 8 9 8 8 9 9 9 9 10 10 9 9 9
6 5 5 5 5 5 6 6 6 6 7 7 7 7 6 6 7 7 7 7 7 7 7 8 8 8 7 7 8 8 9 9 8 9 9 9 10 10 10 10 11 11 11
6 6 6 5 5 6 6 6 7 7 7 7 7 8 8 8 8 8 8 8 8 8 8 8 9 10 11 9 9 9 9 8 9 9 11 11 11 11 10 10 12 13 12
6 6 6 6 5 6 6 6 7 7 7 7 8 8 8 8 8 8 8 8 9 9 10 10 9 10 12 13 12 11 7 6 9 10 10 10 12 12 12 12 12 13 12
6 6 6 5 5 6 6 7 7 7 7 8 8 8 8 9 9 8 8 8 9 9 10 10 11 11 12 12 11 10 8 8 9 11 11 11 12 11 12 11 13 13 13
Wind_Direction
161 157 145 137 120 105 89 65 53 34 18 0 354 354 354 349 346 346 347 345 337 332 327 321 317 304 278 256 256 262 257 255 244 259 273 248 258 266 259 282 273 248 168
140 135 131 123 116 113 93 66 52 35 17 15 4 7 4 3 360 356 351 349 340 333 334 332 328 319 303 294 280 279 281 267 246 241 257 251 250 235 245 263 259 242 161
134 146 138 129 120 108 91 59 43 36 21 18 18 12 3 356 358 359 353 349 347 345 341 341 339 338 327 336 310 283 263 252 244 232 237 245 243 232 235 235 223 237 217
147 144 135 127 117 110 95 65 42 34 22 16 9 7 1 354 356 356 349 346 347 346 343 341 340 342 346 334 316 296 281 256 229 222 211 219 209 211 223 215 209 203 210
147 134 128 124 118 111 90 72 57 40 26 16 8 5 5 4 7 355 341 343 343 346 345 345 352 0 0 341 329 318 293 272 235 214 203 217 197 209 230 232 215 181 174
153 141 125 119 117 110 99 75 55 37 21 12 9 7 5 13 23 354 330 325 330 335 336 340 347 14 41 323 329 328 327 305 293 281 232 210 218 230 255 243 213 190 197
156 149 140 133 122 105 94 64 40 30 14 5 2 3 4 6 3 339 324 311 318 329 330 328 338 9 329 347 239 238 271 301 309 301 303 296 248 239 258 244 221 248 276
157 153 151 150 140 124 91 51 17 359 350 341 344 350 350 356 357 328 313 296 312 319 319 324 332 340 3 339 301 288 277 277 275 275 300 295 302 281 254 248 246 237 231
161 159 162 161 151 149 128 43 346 328 319 314 331 337 338 343 356 328 312 302 320 323 323 326 328 334 15 331 300 296 294 265 190 216 310 308 320 288 270 246 234 231 235
167 171 171 168 167 166 155 311 313 312 310 307 338 330 324 329 1 334 317 310 333 330 327 321 74 317 333 314 286 285 292 322 328 211 214 222 226 213 217 233 250 254 254
164 164 157 162 174 179 187 236 280 298 328 317 322 319 313 315 317 325 320 316 324 324 333 334 10 112 291 290 285 283 285 293 283 271 241 217 198 199 204 211 243 271 276
167 169 166 173 197 171 186 220 254 276 277 281 299 309 304 276 307 331 276 283 301 307 311 320 354 350 299 286 278 286 275 265 256 264 276 288 301 206 175 212 240 272 277
170 172 177 187 200 211 219 221 239 257 283 303 306 319 330 337 253 206 234 252 264 275 303 325 304 285 280 262 230 238 246 243 244 256 267 282 287 287 263 226 223 228 235
176 180 188 199 206 213 239 245 259 280 298 312 317 324 329 325 325 330 304 274 244 257 287 272 241 248 247 256 246 223 232 249 266 272 274 267 251 236 237 243 248 246 251
185 191 201 208 215 228 235 265 279 294 311 300 309 311 313 316 354 358 321 312 319 328 320 292 285 280 269 254 250 244 240 229 229 248 258 250 246 247 250 242 247 260 261
191 201 208 215 219 233 236 236 220 243 235 243 261 280 294 291 303 305 298 291 291 298 296 285 290 292 299 302 294 268 247 249 255 253 256 257 258 261 265 262 255 255 259
202 213 224 228 228 238 248 256 259 233 226 235 240 243 249 272 278 279 279 280 274 258 260 275 281 285 291 291 287 281 275 264 266 266 263 261 258 259 263 266 263 262 263
211 214 233 238 241 244 252 262 268 277 273 261 231 227 234 243 252 259 264 270 262 233 253 270 278 278 279 279 279 280 277 269 260 260 260 260 262 264 267 268 266 267 270
221 228 232 249 248 246 253 261 267 275 283 287 286 236 220 232 238 245 241 253 275 279 275 275 274 274 276 278 277 275 272 270 270 267 264 262 264 265 265 265 267 261 264
221 230 242 248 248 247 248 257 266 272 275 281 288 293 281 268 271 262 246 260 272 279 283 284 284 283 280 278 275 271 266 261 260 260 261 261 263 265 266 267 269 270 267
224 210 210 238 245 248 252 261 268 271 276 281 284 290 295 287 288 288 285 281 281 284 282 282 281 280 276 272 271 273 272 270 268 268 268 267 266 267 268 268 268 270 273
231 230 229 240 246 247 257 265 270 274 277 280 283 274 234 260 279 284 285 286 285 282 282 281 279 277 279 280 281 277 275 273 273 274 276 275 271 269 269 268 268 270 272
231 238 240 243 249 244 248 258 263 267 272 277 282 287 280 278 281 284 287 287 286 286 283 276 273 274 276 276 276 278 280 280 281 284 281 278 277 275 274 273 273 274 273
232 239 247 249 250 257 261 265 267 270 276 281 284 286 286 284 282 284 284 286 286 284 282 279 276 275 277 278 276 273 273 279 282 281 280 277 277 277 276 273 273 274 273
238 241 249 254 257 262 267 271 275 278 280 282 283 284 286 287 287 288 287 286 286 285 284 282 279 278 279 279 278 278 282 273 270 276 273 269 269 269 270 272 272 274 272
241 244 249 254 258 263 268 273 277 282 284 286 288 290 291 293 293 296 297 296 296 292 289 285 282 283 283 281 280 282 276 264 259 261 267 269 268 267 270 271 274 274 276
Height
1540 1540 1540 1540 1540 1540 1540 1541 1539 1538 1537 1536 1535 1534 1533 1531 1530 1528 1526 1524 1523 1522 1520 1519 1517 1517 1516 1516 1515 1515 1515 1515 1514 1514 1514 1514 1513 1513 1513 1512 1512 1512 1511
1539 1538 1538 1538 1539 1539 1539 1539 1538 1537 1537 1536 1535 1534 1532 1531 1529 1527 1526 1524 1523 1521 1519 1518 1516 1516 1515 1514 1514 1513 1513 1513 1513 1512 1512 1512 1511 1511 1511 1511 1511 1512 1511
1537 1538 1538 1538 1538 1538 1538 1538 1538 1537 1536 1536 1534 1533 1532 1530 1529 1527 1525 1524 1522 1521 1519 1517 1516 1515 1514 1513 1512 1512 1512 1511 1511 1511 1510 1510 1510 1510 1510 1510 1510 1510 1510
1537 1538 1537 1537 1537 1538 1538 1538 1537 1537 1536 1535 1534 1533 1531 1530 1529 1527 1525 1524 1522 1520 1519 1517 1516 1515 1514 1512 1511 1511 1511 1510 1510 1510 1509 1509 1509 1509 1509 1509 1510 1509 1510
1537 1537 1537 1537 1537 1537 1537 1537 1537 1536 1536 1535 1534 1533 1531 1530 1528 1526 1525 1523 1521 1520 1518 1517 1515 1514 1513 1512 1511 1511 1510 1510 1510 1509 1509 1508 1508 1508 1508 1509 1509 1509 1509
1536 1537 1537 1537 1537 1537 1537 1537 1536 1536 1535 1535 1534 1532 1531 1530 1528 1526 1524 1523 1521 1520 1518 1517 1515 1514 1513 1511 1511 1510 1510 1509 1509 1509 1508 1508 1507 1507 1508 1508 1508 1508 1508
1536 1537 1537 1537 1537 1537 1537 1537 1536 1536 1535 1534 1533 1532 1530 1529 1527 1526 1524 1522 1521 1519 1518 1517 1516 1514 1513 1512 1511 1510 1509 1508 1508 1508 1508 1507 1506 1506 1506 1507 1507 1507 1507
1536 1537 1537 1537 1537 1537 1537 1537 1536 1535 1535 1534 1532 1531 1530 1529 1527 1526 1524 1523 1521 1520 1518 1517 1515 1514 1513 1512 1512 1511 1510 1509 1508 1507 1507 1506 1506 1505 1506 1506 1506 1506 1506
1536 1536 1537 1537 1537 1537 1537 1537 1536 1535 1534 1533 1532 1531 1530 1529 1527 1526 1524 1523 1522 1520 1518 1517 1515 1514 1513 1512 1511 1510 1510 1509 1508 1507 1506 1505 1505 1504 1505 1505 1506 1506 1506
1535 1536 1536 1537 1537 1537 1537 1536 1536 1535 1534 1533 1532 1531 1530 1528 1527 1526 1524 1523 1522 1520 1519 1517 1515 1515 1513 1512 1511 1511 1510 1509 1508 1507 1506 1505 1504 1504 1504 1504 1505 1505 1505
1534 1535 1536 1536 1536 1536 1536 1536 1535 1535 1534 1533 1532 1531 1529 1528 1526 1525 1524 1522 1521 1520 1519 1518 1516 1515 1514 1513 1512 1511 1510 1509 1508 1507 1506 1506 1505 1505 1504 1504 1504 1504 1505
1534 1534 1535 1535 1536 1536 1536 1535 1535 1535 1534 1533 1532 1531 1530 1528 1526 1525 1524 1522 1521 1520 1519 1518 1516 1515 1513 1512 1511 1510 1510 1509 1508 1508 1507 1506 1506 1505 1505 1504 1503 1503 1503
1533 1534 1534 1535 1535 1535 1535 1535 1535 1535 1534 1533 1532 1531 1530 1528 1527 1525 1523 1522 1521 1519 1518 1517 1516 1514 1513 1512 1511 1510 1509 1509 1508 1507 1507 1507 1506 1505 1504 1504 1503 1502 1501
1533 1533 1534 1534 1535 1535 1535 1535 1535 1535 1534 1533 1532 1531 1530 1528 1527 1525 1524 1522 1521 1519 1518 1517 1515 1514 1512 1511 1510 1509 1508 1508 1508 1507 1507 1506 1506 1505 1504 1504 1503 1502 1502
1532 1533 1533 1534 1534 1534 1534 1534 1534 1533 1533 1532 1531 1530 1529 1527 1526 1524 1522 1521 1520 1519 1517 1516 1515 1514 1512 1511 1510 1509 1508 1507 1507 1506 1506 1505 1504 1504 1503 1503 1502 1501 1500
1531 1532 1533 1533 1533 1533 1533 1533 1532 1531 1530 1529 1528 1527 1526 1525 1524 1522 1521 1520 1518 1517 1515 1514 1513 1512 1511 1510 1509 1508 1507 1506 1506 1505 1504 1504 1503 1502 1501 1501 1500 1499 1498
1530 1531 1532 1532 1532 1532 1532 1532 1531 1530 1529 1528 1526 1525 1524 1523 1522 1521 1519 1518 1517 1515 1514 1513 1512 1511 1510 1509 1508 1507 1506 1505 1504 1503 1502 1502 1501 1500 1499 1498 1497 1496 1495
1529 1530 1530 1530 1531 1530 1530 1530 1529 1529 1528 1526 1525 1523 1522 1520 1519 1518 1517 1515 1514 1513 1512 1511 1510 1509 1508 1507 1506 1505 1504 1503 1502 1501 1500 1499 1499 1497 1496 1495 1494 1493 1492
1528 1529 1529 1529 1529 1529 1529 1528 1527 1527 1526 1524 1523 1522 1520 1518 1517 1515 1514 1513 1512 1511 1510 1509 1508 1506 1505 1504 1503 1502 1501 1500 1499 1498 1497 1496 1496 1494 1493 1492 1490 1489 1487
1526 1526 1527 1527 1527 1527 1526 1526 1525 1524 1523 1522 1521 1520 1518 1517 1515 1514 1512 1511 1509 1508 1507 1506 1505 1504 1502 1501 1500 1499 1498 1497 1496 1495 1494 1493 1492 1491 1489 1488 1486 1485 1483
1525 1525 1524 1525 1525 1524 1524 1524 1523 1522 1521 1520 1519 1517 1516 1514 1513 1511 1510 1508 1507 1505 1504 1503 1501 1500 1499 1498 1496 1495 1494 1493 1492 1491 1490 1489 1487 1486 1485 1483 1482 1480 1479
1523 1524 1523 1523 1523 1522 1522 1521 1521 1520 1518 1517 1516 1514 1512 1511 1510 1508 1507 1505 1504 1502 1501 1499 1498 1496 1495 1494 1493 1491 1490 1489 1488 1487 1485 1484 1483 1481 1480 1478 1477 1475 1474
1521 1521 1521 1521 1521 1520 1519 1518 1518 1517 1515 1514 1513 1511 1510 1508 1506 1505 1503 1502 1500 1499 1497 1495 1493 1492 1491 1490 1488 1487 1486 1484 1483 1482 1480 1479 1477 1476 1474 1473 1472 1470 1468
1519 1519 1518 1518 1518 1517 1517 1516 1515 1514 1512 1511 1509 1508 1506 1504 1503 1501 1499 1498 1496 1495 1493 1491 1489 1488 1486 1485 1483 1482 1480 1479 1477 1476 1474 1473 1471 1470 1468 1467 1465 1464 1462
1516 1516 1516 1515 1515 1514 1514 1513 1512 1511 1509 1508 1506 1505 1503 1501 1499 1497 1496 1494 1492 1490 1488 1487 1485 1483 1481 1479 1478 1476 1474 1473 1471 1470 1468 1466 1465 1463 1462 1460 1458 1457 1455
1513 1513 1513 1513 1512 1511 1511 1510 1509 1508 1506 1505 1503 1501 1500 1498 1496 1494 1492 1490 1488 1486 1484 1482 1480 1478 1476 1474 1472 1470 1468 1466 1465 1463 1462 1460 1458 1457 1455 1453 1452 1450 1448